Location: Ertinghausen
(51.6624°N, 9.7874°E)
Time: 14:17:51
(UTC+00:00)

CZ-2C R/B - Pass Details

Date: 13 August 2024
Orbit: 703 x 903 km, 98.2° (Epoch: 14 September)

Event Time Altitude Azimuth Distance (km) Brightness Sun altitude
Rises 23:32:50 0° 33° (NNE) 3,218 7.2 -24.0°
Reaches altitude 10° 23:38:16 10° 82° (E) 2,350 5.6 -24.0°
Maximum altitude 23:38:24 10° 83° (E) 2,351 5.6 -24.0°
Drops below altitude 10° 23:38:31 10° 84° (E) 2,352 5.6 -24.0°
Enters shadow 23:40:44 - 108° (ESE) 2,558 5.6 -24.0°
